RH
13 13 13 14 17 18 19 21 22 23 23 23 23 23 24 23 19 17 20 23 26 27 24 24 27 26 25 25 27 28 28 29 32 35 34 33 36 40 43 48 53 61 74 85 91 95 96 95 95 95 97 99 100 101 100 99 96 93 88 83 80 75 71 68 64 60 56 54 53 51 50 49 46 44 42 41 41 41 40 39 37 36 35 35 35 36
13 13 15 18 19 19 20 21 22 23 23 22 23 22 22 25 22 16 18 23 26 27 24 22 24 25 26 27 28 30 30 32 36 37 36 38 43 47 52 57 66 77 87 94 98 98 98 98 98 99 100 100 99 97 95 91 85 80 74 68 64 60 57 53 49 46 43 43 42 41 40 39 38 38 36 34 34 33 32 31 30 28 27 25 24 24
13 15 19 20 20 21 21 21 22 22 22 22 22 22 21 24 24 19 18 23 25 25 24 23 24 25 27 28 29 30 31 35 40 40 40 44 50 54 59 67 79 91 98 100 100 98 99 100 100 100 98 95 90 85 78 71 65 60 56 52 47 43 40 37 34 32 33 34 35 35 36 37 37 37 36 34 31 28 26 24 23 22 20 19 18 16
15 18 20 20 21 21 21 22 21 19 20 22 23 24 24 23 26 25 21 23 23 23 24 24 25 27 27 27 31 33 35 41 43 41 42 47 52 56 65 77 89 97 100 100 100 101 101 100 98 92 84 77 69 62 57 55 60 59 44 30 26 27 25 24 26 29 32 33 35 37 38 39 38 37 36 34 32 29 27 24 22 20 18 16 15 13
18 20 20 21 22 22 23 22 20 18 19 22 24 26 26 24 25 26 25 23 22 23 24 25 27 30 30 32 34 35 39 43 43 42 44 47 50 59 73 86 95 100 101 101 101 99 96 91 83 69 59 53 44 44 46 43 53 68 67 56 44 32 30 38 43 45 47 44 44 46 44 42 40 39 38 38 38 35 31 28 25 22 19 17 15 14
19 20 20 22 22 23 23 21 20 21 22 25 27 27 27 26 24 24 25 24 25 28 29 30 31 31 34 37 36 37 41 42 43 44 45 49 56 70 86 96 101 101 99 99 97 90 81 67 52 41 35 31 28 38 52 51 56 72 85 93 81 61 64 78 77 71 69 64 60 58 54 49 45 43 43 43 44 42 39 38 34 28 24 21 18 16
19 20 21 22 22 23 21 20 22 24 27 30 29 26 26 26 24 22 24 26 29 32 30 33 36 33 35 40 37 38 42 43 45 46 49 57 67 81 96 101 100 97 94 89 81 71 56 37 29 29 24 19 18 24 33 42 57 75 89 101 94 76 82 98 96 92 92 87 82 77 68 59 53 50 47 49 54 58 58 53 45 36 29 25 21 18
20 20 21 22 23 22 21 23 25 27 29 30 28 27 26 25 23 21 23 27 31 33 32 35 40 38 35 38 40 41 44 46 46 49 56 65 75 90 100 97 93 91 85 76 66 54 34 19 20 25 24 24 26 23 20 24 37 52 67 83 85 77 86 102 101 98 100 99 97 95 88 77 69 63 60 65 74 77 72 62 50 40 31 24 19 16
19 19 21 22 23 23 24 26 27 27 28 28 29 28 26 23 21 22 25 29 32 34 34 35 39 38 34 38 45 46 45 47 49 55 64 71 83 93 95 92 89 82 75 71 67 49 24 11 11 13 15 19 23 23 25 30 36 42 49 62 74 79 90 103 102 99 101 100 100 101 98 92 84 81 81 87 90 83 72 61 48 36 24 17 14 13
19 20 22 23 23 24 26 26 26 28 28 28 29 26 22 21 23 25 27 32 34 32 32 35 37 40 39 40 45 47 46 50 57 65 73 80 88 95 95 92 85 77 74 68 51 27 11 7 9 9 9 12 16 18 16 22 37 50 58 69 79 80 86 97 100 100 101 100 100 101 100 99 96 94 95 95 90 79 68 56 40 25 16 12 12 12
19 22 23 23 25 25 26 26 26 28 27 27 27 23 21 26 29 28 29 33 34 31 33 37 41 45 45 43 44 45 48 55 63 73 83 90 96 99 93 82 79 78 69 45 20 8 8 9 9 10 12 13 14 15 23 43 64 75 79 88 92 89 94 103 103 100 100 100 100 100 101 102 100 98 96 92 82 72 60 45 29 18 14 13 13 15
22 23 24 25 26 26 25 25 26 27 28 28 27 24 26 32 34 32 33 37 37 35 36 38 44 48 45 42 42 45 50 58 70 84 95 99 99 93 82 77 78 67 40 16 8 9 10 10 12 13 14 15 16 24 43 66 82 82 82 91 93 89 93 96 95 97 99 100 100 100 101 101 101 98 93 85 75 63 47 31 20 17 17 17 17 18
22 23 25 27 27 27 27 26 27 29 29 29 27 28 31 36 39 39 38 39 38 39 39 42 48 48 41 40 43 47 55 65 82 95 99 99 95 87 84 84 69 36 13 9 10 12 13 13 15 15 18 19 21 33 46 47 44 40 47 66 74 77 84 85 86 95 99 99 100 101 100 99 98 93 84 75 64 50 35 24 19 19 20 20 19 18
23 24 25 28 28 28 28 27 29 31 31 31 32 36 39 42 51 55 47 43 44 41 40 44 46 44 41 42 46 53 61 72 86 94 93 93 90 86 86 72 39 12 7 11 10 12 15 15 16 18 25 26 21 23 25 19 21 30 48 73 81 83 93 95 95 101 100 98 98 96 92 89 83 76 70 63 54 43 32 24 20 20 20 20 19 17
27 27 25 28 28 28 28 28 31 32 33 35 36 40 45 50 57 59 48 47 52 48 47 47 43 43 45 46 53 60 63 73 85 89 88 86 83 82 71 39 13 10 13 13 13 14 14 15 17 20 23 23 19 17 18 25 45 65 78 91 95 95 100 101 99 100 100 98 94 85 74 66 60 58 58 56 52 47 37 25 19 18 17 18 17 16
26 26 25 27 29 29 29 29 31 33 35 37 38 42 50 53 56 57 51 53 57 55 52 46 41 45 48 52 59 62 67 78 85 85 80 79 83 79 53 20 11 18 13 9 14 15 16 17 17 21 19 15 15 15 17 29 47 63 76 86 96 102 102 101 101 102 100 93 81 67 55 51 53 58 63 60 52 43 32 22 17 16 16 16 16 15
27 26 25 27 29 28 30 31 31 33 35 38 43 50 52 49 52 57 55 52 52 53 48 41 43 48 48 54 60 64 79 88 84 79 80 88 92 72 41 26 26 19 10 29 54 44 23 17 18 20 15 21 42 36 18 20 26 35 56 75 90 99 98 96 94 87 79 68 59 54 54 62 72 77 72 56 37 26 21 18 16 16 15 15 15 15
29 26 23 26 30 28 30 32 32 34 35 40 49 53 50 48 52 56 55 52 52 53 47 43 50 54 50 53 60 70 84 84 77 80 89 97 81 41 19 22 24 14 12 45 77 57 24 18 21 19 14 29 56 44 21 26 33 35 45 52 62 73 74 72 69 63 58 58 61 68 77 85 84 73 54 33 21 18 17 16 15 16 16 15 15 15
29 28 24 26 29 29 30 32 35 36 36 42 50 49 49 54 58 57 58 61 61 59 53 49 53 57 56 57 65 76 79 75 79 88 95 96 70 32 19 17 12 12 16 29 39 28 19 22 19 17 18 22 29 21 15 24 28 27 30 30 33 38 39 43 47 48 50 56 65 75 82 80 63 42 26 18 17 17 15 16 16 16 16 15 15 19
29 32 29 26 27 29 30 33 38 38 40 46 49 50 53 57 59 60 61 61 60 61 62 63 59 54 56 63 71 77 75 78 90 96 94 82 53 31 29 26 16 14 22 30 24 17 20 22 15 16 19 17 16 16 16 17 16 17 20 20 22 22 22 25 27 29 31 34 40 45 47 43 31 21 17 16 17 16 15 17 16 15 17 19 26 39
29 34 33 27 27 31 34 36 38 39 43 47 51 56 58 58 61 64 62 59 60 61 63 71 70 58 58 65 69 73 79 88 95 95 85 53 19 15 29 39 35 20 18 25 20 17 19 17 14 16 15 13 17 19 18 17 17 18 18 18 21 22 22 20 19 21 21 21 23 23 23 22 20 18 18 17 17 17 16 16 16 20 27 36 53 70
30 34 34 29 29 33 34 36 37 41 45 48 52 58 59 61 64 64 60 58 62 64 64 75 81 68 62 64 65 75 88 93 91 86 67 28 7 18 29 34 34 21 16 19 17 18 20 14 13 19 20 16 14 17 19 17 16 16 16 18 18 19 21 21 20 20 20 20 20 20 19 19 19 18 18 17 17 16 17 20 26 38 52 67 83 92
32 35 35 31 31 33 35 38 41 45 47 47 49 51 54 59 62 65 66 62 66 71 69 78 82 70 63 64 69 82 89 86 82 71 46 17 11 21 21 19 19 15 16 19 17 18 18 13 13 18 22 18 14 15 15 13 14 14 15 15 15 17 18 18 18 18 19 19 18 18 18 17 17 16 16 16 18 21 29 39 52 68 83 93 98 99
34 37 36 34 33 34 37 40 42 45 46 46 46 48 53 55 57 64 67 66 73 75 72 81 85 73 65 65 75 90 91 85 82 66 42 28 27 24 16 13 14 15 17 18 18 18 17 16 13 12 15 14 15 18 16 15 15 13 13 14 14 15 15 15 16 16 16 16 16 16 15 14 15 16 18 24 31 43 59 73 85 94 99 98 98 98
33 36 38 39 40 41 42 42 43 45 47 46 45 48 51 51 55 62 65 71 79 77 77 88 87 73 62 64 81 95 90 83 77 57 37 30 26 19 12 13 15 17 19 18 19 18 17 17 15 11 12 14 17 23 25 25 23 19 17 15 13 13 13 14 14 13 14 14 13 13 14 17 20 27 37 50 63 77 89 97 99 99 98 96 97 98
32 34 37 42 44 46 47 44 44 46 47 47 45 47 49 50 55 61 68 78 78 78 89 90 81 71 58 62 87 93 83 79 64 38 22 17 14 12 12 15 17 18 19 18 18 19 18 19 15 11 11 13 19 28 35 40 39 35 29 22 18 14 12 12 12 12 13 12 13 18 22 29 40 54 71 83 92 97 98 98 98 97 97 98 99 99
32 33 36 40 42 44 44 41 41 45 47 47 47 48 47 48 53 58 69 76 73 85 97 84 82 87 68 67 89 85 79 79 50 17 12 11 11 13 13 14 15 16 18 18 18 19 18 17 14 11 10 12 19 30 41 51 54 50 43 33 23 16 13 13 12 12 14 16 22 29 37 52 70 85 95 98 98 97 96 96 96 97 100 101 100 97
32 34 35 36 37 39 40 38 41 46 48 48 47 45 44 48 53 56 65 71 75 93 96 77 87 96 74 72 88 83 80 69 27 5 11 11 11 14 13 13 14 15 16 17 18 20 18 16 13 9 9 12 20 33 48 63 70 68 58 43 30 22 16 14 13 15 19 25 31 42 58 79 93 98 99 97 97 96 96 96 95 97 101 101 98 95
33 35 35 35 33 36 38 39 42 46 46 44 42 42 44 50 55 59 66 71 80 95 91 77 85 87 71 76 86 81 73 45 9 5 12 10 12 13 11 13 14 15 17 17 18 19 18 16 12 9 9 13 24 43 61 73 77 74 62 46 35 27 18 14 15 20 26 31 41 61 82 96 99 98 98 98 99 99 97 96 97 99 101 99 97 97
35 35 36 36 33 34 38 40 43 46 44 39 39 42 47 52 57 63 68 74 84 91 84 78 79 75 72 79 77 63 45 19 4 9 10 9 12 11 11 15 15 16 18 18 19 20 19 17 12 8 9 14 32 58 74 78 77 72 60 47 37 29 20 16 19 25 31 38 56 80 94 97 97 97 97 99 101 101 99 99 100 101 100 98 98 99
36 37 38 38 35 34 38 41 43 45 41 37 39 44 49 54 60 66 70 77 87 84 75 73 74 68 67 71 65 48 26 9 6 9 8 10 11 10 13 17 16 17 19 19 20 19 18 16 12 8 8 18 45 70 79 79 80 77 68 55 42 32 23 18 21 31 36 47 73 92 93 93 96 97 99 103 104 102 103 104 102 101 100 100 100 100
37 38 38 40 38 36 39 42 44 42 38 38 42 45 51 55 61 67 70 74 80 76 68 68 70 67 64 67 63 44 19 7 7 7 8 10 10 13 16 17 18 20 20 20 20 19 18 16 11 8 9 24 56 79 81 81 81 80 77 65 48 34 24 20 25 32 39 59 86 95 90 93 99 99 102 103 101 101 104 103 101 100 100 100 100 100
37 39 39 43 43 39 40 42 43 42 40 41 43 46 52 57 62 66 66 66 70 72 70 68 70 72 71 73 70 45 14 5 7 7 8 10 11 14 15 16 19 20 20 20 18 17 18 15 11 8 10 31 63 80 82 84 84 83 82 74 59 42 27 22 27 31 43 72 91 91 91 98 99 99 101 100 100 102 102 101 100 100 100 100 100 100
38 39 40 43 45 43 41 43 44 44 43 43 43 47 53 58 64 66 63 63 67 67 67 68 70 75 75 76 71 43 11 5 8 7 8 9 11 14 14 15 18 18 18 18 16 16 16 13 11 8 12 38 68 79 81 84 84 85 85 80 71 56 35 26 29 31 51 82 91 88 94 99 98 100 100 99 101 101 100 100 100 100 100 100 100 100
38 40 41 43 46 45 43 46 49 47 43 42 44 49 54 58 63 63 56 56 60 61 63 65 65 67 68 67 56 30 8 6 8 7 8 10 11 13 13 14 16 16 16 15 13 14 13 12 11 7 16 46 72 78 80 81 79 82 86 83 78 66 44 32 30 34 59 87 88 86 95 97 95 97 97 97 101 100 99 100 99 100 101 99 99 101
38 41 42 44 47 47 48 53 54 48 43 43 45 50 55 57 61 62 54 50 55 59 61 61 59 59 60 55 40 18 6 6 7 6 8 9 11 12 11 13 15 16 16 15 14 13 11 12 11 7 20 52 73 75 76 77 75 80 85 84 82 73 55 41 33 37 65 87 85 85 93 92 89 91 91 94 99 99 99 101 99 99 99 98 100 102
39 40 43 46 47 49 53 56 53 47 44 45 46 51 55 56 59 64 59 51 55 60 60 59 56 55 54 47 31 13 6 6 6 7 8 8 9 10 10 12 13 14 15 14 13 12 11 12 10 8 24 56 74 74 74 76 76 80 85 86 84 77 65 51 37 41 70 87 82 83 90 89 89 90 89 93 96 97 99 99 98 100 100 100 102 101
40 40 43 47 48 50 55 57 58 55 49 46 48 51 54 55 58 62 60 54 55 60 60 58 56 54 52 45 29 13 7 7 6 6 6 6 7 8 8 11 12 13 15 13 12 10 9 10 9 9 29 60 73 72 73 76 79 85 88 88 85 79 73 60 42 47 75 85 78 80 86 87 89 90 90 93 95 95 96 97 99 101 101 100 100 99
41 41 43 47 48 49 55 59 61 58 50 46 50 52 53 55 57 60 62 59 57 59 60 59 58 56 53 45 29 13 8 7 6 6 6 6 6 6 7 10 11 13 14 12 11 9 8 10 8 10 33 62 71 69 72 76 82 89 91 90 88 82 78 66 48 54 77 83 76 77 82 85 88 89 90 92 93 93 94 96 100 101 99 100 101 100
41 42 44 47 48 49 55 58 56 52 47 48 52 53 53 55 57 62 66 62 58 59 61 61 60 58 54 46 30 15 8 6 6 6 5 6 6 6 8 9 11 12 12 11 9 7 7 9 7 11 36 63 69 67 70 77 86 93 93 92 91 85 80 70 55 59 77 81 74 75 80 85 88 87 88 90 90 90 92 94 98 99 98 99 100 99
41 43 45 46 47 49 54 57 54 50 49 52 53 53 54 56 58 63 65 60 58 60 62 63 62 59 55 48 33 16 8 6 6 6 6 5 5 6 8 9 11 12 11 9 8 6 7 8 6 13 39 63 68 65 70 79 89 94 94 94 92 86 82 72 60 63 77 79 74 74 79 85 87 86 88 90 88 86 89 94 96 95 94 95 95 97
42 44 45 45 47 50 53 56 54 51 51 54 54 54 55 57 59 60 59 58 59 61 62 63 63 60 56 50 36 20 9 7 6 6 5 5 5 6 7 8 9 10 10 8 7 5 6 7 6 14 40 63 65 63 69 81 90 94 94 93 91 86 82 72 63 67 77 79 76 76 80 85 87 86 87 89 87 86 89 94 95 91 89 90 91 96
41 44 45 44 47 50 52 53 52 52 53 55 56 56 56 57 57 57 57 59 61 62 63 64 64 62 58 53 41 24 12 7 6 6 5 5 5 6 6 7 8 8 8 7 6 5 6 7 5 14 40 61 62 61 70 82 92 95 92 89 88 86 81 71 65 70 77 78 77 79 82 86 88 89 88 86 85 87 90 95 96 92 89 88 91 96
40 43 44 44 47 51 51 50 51 53 56 57 58 58 58 58 58 58 59 61 62 64 65 65 66 65 61 55 45 29 15 8 6 6 6 5 5 5 6 6 7 8 7 6 5 5 6 6 5 13 38 59 61 60 69 82 91 94 88 83 84 85 79 70 66 72 78 77 77 80 83 86 89 90 89 86 84 87 92 96 95 90 87 87 91 97
39 42 43 45 48 49 48 49 53 55 57 58 59 60 60 60 60 60 61 62 63 66 67 67 68 67 64 59 50 34 19 10 7 6 5 5 5 5 5 5 6 6 6 5 5 5 5 6 5 10 34 58 60 58 68 81 88 89 84 79 81 82 77 69 66 72 77 77 78 81 83 85 87 89 90 88 87 88 91 93 91 85 82 84 90 97
38 41 43 45 48 48 47 50 54 55 56 58 60 61 61 61 62 62 62 63 64 67 70 70 70 69 68 63 55 41 25 12 7 6 5 5 5 4 5 5 5 6 5 4 4 5 5 6 5 7 29 54 59 56 66 79 83 81 78 75 77 78 74 67 66 72 76 76 77 81 83 84 86 88 89 87 87 87 88 88 87 85 82 82 88 96
38 41 44 45 47 48 48 51 54 55 56 58 59 60 61 62 62 64 64 64 65 68 71 74 74 72 71 68 60 49 32 17 9 7 5 5 5 4 4 5 4 5 5 4 4 4 4 6 4 5 23 48 56 54 62 75 78 75 72 70 72 74 70 66 68 71 73 75 78 81 83 83 83 86 87 85 85 85 84 84 85 84 83 84 89 96
39 42 44 45 47 48 49 52 54 55 57 59 60 60 61 62 63 64 64 64 65 67 70 74 76 76 75 72 66 56 40 23 12 8 6 5 4 4 4 4 4 5 4 4 4 4 4 5 4 4 16 41 54 52 57 70 75 71 68 66 68 69 68 66 68 69 70 74 78 79 80 80 81 83 84 84 85 85 82 82 83 83 86 92 97 99
39 42 44 46 48 50 51 54 56 56 57 60 62 62 63 64 64 64 65 65 66 67 69 73 77 78 77 75 70 63 50 32 17 9 7 5 5 4 4 4 4 4 4 4 4 4 4 5 5 3 10 33 51 52 53 65 73 69 64 63 63 65 66 66 66 67 69 73 76 76 77 80 81 82 83 84 86 86 84 83 83 83 88 96 99 98
40 43 46 49 51 52 54 57 60 60 59 62 65 66 67 67 66 66 66 66 66 67 68 71 75 78 79 78 75 69 58 42 25 13 8 6 5 4 4 4 4 4 4 4 3 4 4 4 5 3 6 24 47 52 49 58 69 67 61 60 60 60 62 64 64 65 68 72 74 75 78 81 81 82 83 84 85 84 82 81 81 81 83 85 87 86
43 47 50 53 54 54 56 61 64 63 63 65 67 70 71 71 71 71 70 68 68 69 69 71 74 77 79 80 79 74 66 52 35 20 11 7 6 5 4 4 4 4 4 4 3 4 5 4 4 4 4 14 37 50 47 50 62 66 61 57 57 57 59 61 63 64 66 71 73 74 77 79 78 78 80 82 81 80 81 83 85 84 81 78 78 76
Wind_Speed
18 18 20 22 23 24 24 24 25 26 27 28 29 30 31 33 39 43 38 39 46 46 44 43 36 35 36 20 11 22 23 20 28 28 20 19 23 26 27 28 27 26 27 30 32 34 34 31 29 27 27 27 28 31 35 40 45 50 54 57 58 60 61 62 63 63 63 62 62 61 61 60 60 59 58 58 58 59 59 59 59 59 59 60 61 62
17 18 22 22 21 22 23 25 28 29 28 29 30 32 34 34 39 41 38 43 47 44 42 38 34 37 28 12 16 24 20 25 33 25 19 23 27 29 29 28 24 23 27 30 32 31 29 26 24 24 27 32 37 42 49 54 58 61 64 65 66 66 66 66 66 65 64 63 62 61 60 58 57 56 55 55 55 56 57 58 59 59 58 58 58 58
18 19 21 21 21 21 22 26 30 30 29 30 31 32 36 38 40 43 43 45 45 42 38 33 36 35 18 12 25 25 23 32 31 22 23 27 29 32 30 25 21 22 26 29 28 25 23 23 26 31 40 47 52 57 61 65 67 67 68 68 69 68 67 66 65 63 62 60 59 57 55 52 50 49 48 47 48 49 52 53 54 55 55 55 55 54
19 18 21 22 21 21 24 27 30 30 29 30 30 30 36 39 38 43 48 46 43 39 33 33 35 24 12 19 26 22 27 33 27 24 27 32 35 34 28 22 20 22 25 24 21 20 24 31 38 47 56 62 65 67 67 66 64 62 63 64 62 61 61 60 58 57 56 55 53 51 49 46 45 44 43 43 45 47 49 51 52 53 53 52 52 51
19 16 21 23 21 22 24 29 30 30 31 29 28 30 35 37 38 42 45 44 41 33 30 34 27 8 7 22 23 22 32 35 29 27 32 38 40 32 24 19 18 20 20 19 19 27 38 49 57 64 68 69 70 69 65 61 56 52 53 55 54 54 55 53 50 48 48 48 46 45 45 45 44 44 44 46 48 49 51 52 53 53 53 52 51 50
17 16 22 23 22 22 25 31 30 29 32 27 27 33 33 36 43 42 40 41 34 24 26 26 14 5 10 18 22 29 37 35 28 30 37 41 36 26 18 15 15 15 16 23 34 47 58 66 70 71 70 70 69 64 58 54 49 46 44 44 46 48 48 47 45 43 44 44 43 43 44 44 45 45 46 48 49 50 51 52 54 54 55 55 54 52
16 17 22 23 22 22 27 31 29 31 30 24 28 34 33 38 41 38 37 34 23 20 23 14 7 13 16 16 24 35 37 31 28 35 40 36 26 18 12 11 13 18 27 40 54 63 68 71 71 67 66 65 64 60 58 54 47 42 38 36 39 43 43 44 43 42 43 43 44 45 46 46 47 48 49 50 50 50 51 53 55 57 58 58 58 56
14 17 21 23 21 24 32 31 30 31 25 24 30 33 36 39 36 36 33 22 19 22 16 9 12 17 16 18 27 34 30 26 32 39 37 28 19 13 10 13 22 32 44 56 64 70 72 72 69 64 62 61 60 59 58 56 51 45 41 38 39 39 39 41 41 41 43 44 45 47 48 49 49 50 51 51 50 50 53 55 58 60 62 62 61 60
14 16 21 23 21 27 33 30 29 29 25 30 31 32 38 36 32 31 21 15 21 17 4 12 24 16 15 22 22 23 25 27 36 38 31 23 17 13 15 24 36 48 59 65 69 72 71 67 62 61 60 58 57 56 54 53 52 50 47 43 39 36 35 39 41 42 44 45 46 47 49 50 51 51 51 50 51 53 56 59 62 64 64 63 61 59
13 15 21 23 23 29 32 28 29 26 27 32 30 37 41 33 33 25 14 20 21 9 4 18 28 17 16 20 15 17 26 32 36 32 25 21 18 21 29 40 52 60 64 67 68 66 63 60 58 57 56 54 53 53 52 50 47 47 47 45 40 37 39 42 44 45 45 45 44 45 48 49 49 50 50 51 53 56 58 62 65 65 63 60 57 55
12 13 20 24 23 30 32 28 29 26 29 33 34 45 41 29 31 19 15 25 14 3 7 15 26 20 12 12 13 22 32 35 33 25 22 23 26 35 47 56 62 63 66 67 64 60 57 56 55 53 52 52 52 51 50 48 46 46 44 41 38 37 39 41 43 46 47 47 46 44 44 45 47 49 51 52 54 57 59 61 62 60 58 56 53 52
10 10 20 24 23 31 33 29 30 28 31 34 37 48 38 23 23 12 12 19 7 4 9 17 30 22 10 11 19 31 39 36 27 21 25 33 40 51 58 62 63 65 67 63 58 58 57 55 53 52 52 51 51 50 49 49 49 48 44 40 38 37 39 42 45 47 46 47 46 41 38 41 46 49 51 53 55 57 58 58 56 53 52 51 50 50
13 10 18 24 24 32 34 31 31 29 31 34 40 48 35 18 16 9 8 13 8 9 14 24 29 16 11 16 27 38 39 29 20 23 35 44 51 57 58 61 66 66 63 58 56 57 56 55 54 53 53 52 52 51 51 51 50 50 46 42 40 40 41 42 42 41 40 41 40 35 34 39 45 49 51 53 54 55 54 53 51 49 49 49 48 48
17 11 18 23 25 32 34 30 29 28 29 32 38 41 24 8 8 6 7 10 10 16 24 29 21 10 12 22 34 39 29 21 22 30 43 51 55 57 59 64 67 63 58 56 57 56 54 56 55 54 55 55 55 53 51 49 47 45 39 33 33 35 36 34 33 34 36 38 38 38 41 45 48 50 52 52 52 51 51 51 49 48 48 47 47 46
17 9 16 22 24 31 30 25 25 25 22 25 34 32 16 4 2 4 8 8 11 22 29 23 11 8 17 29 35 30 21 23 29 37 50 56 57 60 64 66 64 59 57 56 55 55 55 56 57 57 57 55 54 50 47 43 39 36 32 28 29 32 34 34 35 37 39 41 43 45 48 49 50 50 49 49 49 50 51 52 50 49 47 46 45 44
19 11 15 21 25 30 26 20 24 22 16 22 31 29 18 9 5 9 14 16 18 20 17 12 8 13 25 31 28 23 25 31 36 45 57 59 59 64 67 64 59 57 59 58 56 57 57 58 59 58 58 56 53 47 43 38 35 34 32 31 32 33 35 36 38 39 42 45 47 49 49 48 47 47 47 48 49 51 52 52 49 47 46 44 43 42
21 13 13 20 27 28 21 19 23 21 16 21 26 25 20 13 9 13 16 18 17 12 9 10 14 22 28 23 21 26 30 33 42 55 60 58 62 67 65 58 56 58 59 55 51 55 60 61 60 59 58 54 48 44 42 38 36 34 32 33 34 35 37 39 41 43 45 46 47 46 45 44 44 45 47 50 52 52 51 49 46 43 42 41 39 38
22 15 13 21 27 25 19 18 21 21 20 20 20 23 21 11 9 14 13 13 12 9 9 11 15 26 24 15 24 34 31 35 50 58 56 59 66 67 61 56 56 59 58 49 43 52 62 62 60 60 57 49 43 44 43 37 33 32 31 34 35 37 39 40 42 43 43 43 43 42 42 43 45 47 49 51 50 49 47 44 42 40 39 38 35 34
23 15 13 23 28 22 18 16 18 21 21 20 21 26 22 7 6 13 9 7 9 9 10 13 20 23 15 16 32 37 34 44 55 56 57 64 68 64 59 59 61 60 59 55 52 57 61 60 60 58 53 48 45 46 44 38 35 34 33 33 34 37 39 40 41 42 41 41 41 42 44 45 47 48 48 47 45 43 41 39 38 37 36 34 32 30
23 13 11 23 27 19 16 15 15 18 19 20 26 30 25 12 9 13 7 4 8 9 11 17 20 14 14 27 36 33 39 51 53 55 62 66 64 59 55 59 63 61 59 58 60 62 60 59 59 54 49 48 47 47 46 44 42 40 38 35 33 34 35 35 37 39 39 40 40 42 43 44 44 43 41 39 38 38 37 36 35 33 32 30 28 27
24 13 13 26 26 14 13 15 16 17 16 20 27 29 27 22 16 13 8 6 6 6 10 15 15 20 28 34 34 36 45 49 51 59 66 66 63 58 55 56 58 60 59 58 60 62 60 60 57 53 51 48 45 45 46 45 44 42 40 37 34 33 33 32 32 33 34 34 35 36 37 37 37 36 35 34 34 33 32 31 30 29 28 27 27 28
22 14 18 31 26 13 12 15 16 16 14 20 27 28 27 26 20 11 6 8 8 9 13 11 14 29 38 33 35 43 45 47 55 64 65 64 62 57 55 54 55 58 59 59 62 62 61 60 57 54 53 50 46 44 43 44 43 41 39 37 34 32 32 32 31 30 30 30 30 31 31 32 32 32 31 30 30 29 28 27 27 27 28 28 29 30
22 14 22 31 22 11 10 12 14 15 17 24 29 29 29 26 22 12 6 14 19 18 20 16 15 27 35 35 39 40 41 51 62 66 65 63 60 56 55 57 57 58 58 59 61 62 62 60 57 54 52 49 47 43 41 42 41 40 38 35 34 32 30 30 29 29 28 28 28 28 28 29 28 28 27 27 26 25 25 26 27 28 29 29 28 26
21 16 25 31 20 11 10 12 15 17 23 30 32 32 29 26 26 20 14 18 18 17 21 16 12 22 33 41 41 33 40 57 64 64 63 58 55 56 57 59 59 59 60 59 60 62 62 61 59 56 51 49 47 44 43 42 40 39 37 35 34 32 30 29 28 27 27 26 26 26 26 26 25 25 24 24 25 25 26 28 28 27 26 23 20 17
20 19 25 24 15 11 9 11 16 21 27 31 32 30 27 26 27 22 19 17 12 14 19 13 15 28 42 49 40 31 43 61 64 62 59 54 55 58 59 60 59 58 60 60 60 62 61 60 60 56 51 48 46 44 43 42 41 39 37 36 34 32 31 29 27 27 26 25 25 24 24 24 23 23 24 25 27 27 26 26 23 20 18 14 12 11
21 22 23 16 8 7 8 11 16 22 28 30 29 27 25 25 24 22 18 13 12 15 19 21 30 46 57 54 39 36 52 65 65 61 59 58 59 59 58 58 58 59 60 61 62 62 61 59 58 54 49 46 44 43 42 41 40 39 37 36 34 32 31 29 28 27 25 25 24 23 23 24 24 25 27 27 26 23 20 17 15 12 11 9 8 8
21 23 23 19 15 14 17 18 18 22 26 28 27 24 23 23 23 23 17 14 18 20 23 31 36 44 55 54 42 48 61 64 63 62 61 61 60 59 59 58 58 59 60 61 62 62 61 59 57 52 47 44 43 42 42 41 40 39 38 36 33 32 31 29 28 26 25 24 24 24 25 26 28 28 26 23 20 17 14 12 10 9 8 7 6 5
21 22 23 24 26 23 21 20 20 21 24 26 25 21 20 21 22 23 19 19 23 20 25 37 36 37 50 52 45 56 65 62 62 62 60 60 59 58 59 58 58 59 60 62 62 61 61 59 57 52 46 43 44 43 42 42 40 39 37 35 33 32 30 29 28 26 25 25 25 26 28 28 27 24 20 17 15 14 12 10 8 7 6 6 4 3
20 22 24 27 28 24 19 21 23 25 25 23 21 18 18 20 21 23 23 24 25 24 31 44 41 39 49 50 49 60 63 61 63 61 58 59 58 58 60 59 59 59 61 62 61 61 61 59 57 53 46 43 44 44 45 42 39 37 35 34 32 31 30 28 27 26 25 25 26 29 29 26 22 18 16 15 14 12 11 8 7 6 5 5 5 4
20 23 25 28 29 23 19 24 28 29 26 19 15 16 19 21 21 23 27 30 33 36 40 43 41 43 48 50 55 61 60 59 61 59 58 59 58 60 60 58 59 60 61 62 61 61 60 58 57 52 46 44 44 44 44 42 40 37 35 33 32 30 30 28 26 26 25 26 29 28 25 20 17 16 15 13 12 10 9 8 7 7 7 7 7 7
22 24 25 29 30 25 23 29 31 30 23 14 12 16 20 23 23 25 30 35 38 41 41 38 41 48 51 53 58 60 58 59 59 57 58 58 58 60 59 58 59 60 60 61 62 62 61 58 57 52 47 45 45 44 42 40 39 37 35 34 31 30 29 28 27 26 26 28 29 24 19 16 16 15 14 11 10 10 9 9 9 9 9 8 9 10
23 24 26 29 29 28 28 32 33 27 16 10 13 19 22 23 26 30 36 40 40 39 37 37 43 50 54 56 59 59 58 58 57 56 57 57 58 59 58 58 59 59 60 61 62 63 61 58 56 52 47 46 45 43 40 39 38 37 36 34 31 29 28 26 26 25 27 29 25 18 15 15 15 13 11 10 11 11 11 11 10 10 10 10 11 12
23 25 28 26 26 29 30 33 31 20 9 8 16 22 22 25 31 37 42 43 38 32 32 38 45 50 53 56 58 59 58 56 56 55 55 56 57 57 57 58 58 58 59 61 62 62 60 57 55 51 47 46 44 40 38 39 38 37 36 33 31 29 27 26 25 24 27 26 19 15 14 14 13 11 11 11 12 11 11 11 11 11 11 12 13 13
23 26 26 24 25 27 32 35 26 8 4 13 21 23 24 28 35 41 45 44 35 29 34 44 49 50 52 55 57 58 57 55 54 53 53 55 57 57 58 58 58 59 60 61 62 62 58 56 53 49 46 45 44 40 39 39 38 37 35 33 30 28 26 24 23 23 25 21 14 13 13 12 12 11 11 12 11 11 11 11 11 11 11 12 12 12
24 26 24 25 25 26 33 34 16 3 12 21 21 23 27 34 39 44 49 45 34 33 42 50 51 51 53 54 56 56 55 54 52 51 52 54 56 57 58 58 59 60 60 61 62 60 57 54 51 47 45 44 43 40 39 39 37 36 34 32 30 27 24 22 20 21 22 16 11 12 11 11 12 12 11 11 10 11 11 11 12 12 11 11 11 11
24 24 24 26 24 22 28 24 10 11 21 19 18 24 31 38 42 46 51 46 34 37 49 52 51 53 54 54 55 55 55 54 52 53 55 55 56 57 58 58 59 59 60 61 61 59 56 52 50 46 43 42 41 39 39 39 38 35 33 31 29 25 22 19 18 19 18 12 9 9 9 10 11 11 10 10 10 10 11 11 12 12 11 11 11 12
23 24 24 23 20 20 24 22 19 20 18 14 20 29 35 41 42 43 48 43 35 41 51 51 51 54 53 54 55 54 54 54 53 54 56 55 55 56 57 57 58 58 59 60 59 57 54 50 48 45 42 42 40 39 40 39 37 35 32 30 27 23 20 16 15 16 14 9 6 7 8 8 9 9 9 9 9 9 10 11 12 11 11 12 12 13
22 23 22 20 19 21 22 20 17 12 9 15 26 34 39 43 41 41 44 40 39 46 51 50 51 53 53 53 53 53 55 56 54 53 54 55 55 56 56 56 56 57 59 59 58 56 51 48 47 44 42 41 39 38 40 39 37 34 31 29 27 22 18 14 12 13 11 5 4 5 5 6 7 8 8 8 8 8 9 10 11 11 11 12 13 14
21 21 21 19 19 21 19 13 8 6 10 20 30 36 41 41 42 42 36 35 43 49 48 48 50 50 51 52 52 52 54 56 56 54 53 54 54 55 56 56 56 57 58 58 57 54 50 47 46 43 41 40 38 39 40 39 36 33 30 29 26 22 16 11 9 10 7 3 2 3 3 4 6 7 7 6 7 8 9 9 9 10 11 12 13 13
21 21 20 19 20 22 19 15 12 12 15 23 31 38 40 40 40 33 21 28 46 49 45 47 48 47 49 50 50 50 50 51 54 53 52 53 53 53 55 55 56 58 58 57 56 53 49 46 45 42 41 40 39 40 40 38 35 32 30 28 25 21 15 9 7 6 4 1 2 2 2 3 4 6 6 5 6 8 9 9 9 10 11 12 13 14
20 20 20 20 22 22 18 18 20 20 19 25 33 38 38 37 34 25 21 34 47 45 43 46 46 46 48 48 48 49 47 47 49 50 50 51 51 52 53 54 55 57 57 57 55 52 48 46 44 42 40 40 40 40 40 38 34 31 29 27 23 19 13 7 5 4 1 2 2 2 2 2 3 5 5 5 6 7 8 8 9 10 11 12 14 15
19 19 19 21 22 22 20 21 21 19 22 31 37 37 36 34 32 31 36 42 43 41 44 45 44 46 48 47 47 48 46 46 47 48 49 50 49 51 52 53 55 56 56 56 54 50 48 45 43 41 39 39 40 41 40 37 34 31 29 25 21 17 11 6 3 2 2 3 3 2 2 2 3 4 4 4 5 6 7 7 8 9 10 11 13 14
19 18 20 22 21 19 19 17 14 17 27 36 37 36 35 35 36 39 42 42 41 42 44 44 45 47 47 46 47 46 46 47 47 47 48 48 48 50 51 53 55 56 56 55 52 50 47 45 42 40 39 39 40 40 39 36 33 30 28 24 20 15 10 4 2 2 4 5 4 3 3 3 3 3 3 3 4 5 5 6 7 9 10 11 12 13
19 18 21 23 20 17 16 15 16 24 33 36 35 35 36 37 38 40 42 42 43 43 43 44 46 46 46 47 46 46 46 47 46 47 48 48 48 48 50 52 54 55 56 54 52 49 47 45 42 39 38 39 39 39 38 35 32 29 26 22 18 14 9 4 2 4 6 6 5 4 4 3 3 2 1 2 3 3 3 4 5 7 9 10 12 12
21 22 23 24 23 22 22 23 26 30 33 34 36 37 37 38 39 40 41 42 43 43 44 45 45 45 46 46 46 45 46 46 46 47 47 47 48 48 49 51 53 55 55 54 51 50 47 45 42 38 37 38 38 38 37 34 31 28 25 21 17 13 9 4 3 5 7 7 5 5 4 3 2 2 1 1 2 2 2 3 4 6 8 9 11 12
23 24 24 26 27 27 28 28 30 33 34 34 36 38 38 39 40 40 41 41 42 43 44 44 44 45 45 46 46 46 46 46 46 46 47 47 47 47 49 51 52 53 54 53 51 50 48 45 42 38 36 36 37 37 36 33 31 28 24 21 16 12 8 4 4 7 8 8 6 5 4 3 2 2 1 2 2 2 2 2 3 5 6 8 11 12
23 24 26 27 28 30 31 31 32 35 36 34 36 38 39 40 41 41 42 42 42 43 44 44 44 44 44 45 46 45 45 46 46 46 47 47 47 47 49 50 51 52 53 52 51 49 48 46 42 37 35 35 36 36 35 32 31 28 25 21 16 11 7 4 5 8 9 8 6 5 4 3 3 2 2 2 3 3 3 2 2 4 6 8 10 11
24 25 27 28 30 32 34 33 33 36 36 34 36 39 39 40 42 42 42 42 42 42 43 44 44 44 44 45 45 45 45 45 45 45 47 47 47 47 48 49 51 51 51 51 50 49 48 47 43 38 35 34 34 35 34 31 30 27 24 21 16 11 6 4 7 9 9 8 6 5 4 4 3 2 3 3 3 3 3 2 0 3 5 7 8 9
24 26 26 29 33 35 34 33 35 37 37 35 37 39 39 40 42 42 42 43 43 42 42 43 44 44 44 44 44 45 45 45 45 45 46 46 46 46 47 48 50 50 50 50 49 48 48 47 43 38 34 32 33 34 32 30 28 26 23 20 15 10 6 5 7 9 9 7 6 5 4 4 3 3 3 3 3 3 3 2 1 1 2 3 3 5
23 25 25 29 33 34 33 33 35 37 37 36 37 39 39 40 41 42 43 43 43 42 42 42 43 44 44 44 44 45 45 45 45 45 45 45 46 46 46 47 48 49 49 49 48 47 47 46 44 39 34 31 31 32 31 29 27 24 22 19 15 10 5 5 7 8 8 7 6 5 5 4 3 3 3 3 3 3 3 2 2 1 0 1 1 1
24 25 26 28 32 33 32 32 34 36 37 37 37 38 39 40 41 42 43 43 43 43 42 42 42 43 43 43 43 44 44 44 45 45 45 45 45 45 45 46 46 47 48 48 47 46 45 46 45 40 34 31 30 31 31 29 26 23 20 17 13 9 4 3 6 8 8 7 6 5 5 4 4 3 4 4 4 4 3 3 2 1 2 2 3 3
Wind_Direction
358 355 2 9 7 3 4 5 1 357 352 347 343 340 339 338 335 338 340 341 341 339 338 340 338 339 343 345 348 343 344 345 342 340 337 336 338 338 334 325 314 298 280 266 258 253 250 251 254 260 269 277 286 292 297 300 302 303 304 305 305 305 305 306 306 307 308 307 307 306 306 305 304 303 301 300 299 297 297 296 295 294 293 291 288 286
357 3 14 15 8 5 2 359 355 354 352 347 345 342 341 338 335 337 341 342 340 336 336 339 339 339 342 345 342 340 337 339 342 343 338 339 341 339 333 323 309 286 269 258 253 252 252 257 270 286 296 301 303 304 305 306 306 306 307 308 308 308 308 308 308 309 310 309 309 308 308 307 307 306 304 303 300 298 296 294 293 292 291 291 290 289
8 16 19 12 8 5 359 356 351 349 352 351 347 344 341 339 337 338 341 341 337 334 336 341 339 338 341 341 338 335 333 339 342 339 338 343 343 339 333 322 301 277 262 254 252 258 269 285 298 306 309 310 309 309 309 310 309 308 309 309 309 308 308 308 309 310 310 309 309 309 309 309 308 307 305 303 301 299 297 295 294 293 292 291 291 290
22 24 16 9 7 2 356 353 347 346 352 351 347 345 340 341 341 337 336 337 335 335 340 342 337 333 334 336 334 331 335 340 338 337 341 344 341 337 330 315 291 268 255 252 263 282 299 308 310 310 311 312 313 314 314 315 313 310 312 313 312 311 310 309 309 309 309 308 308 309 308 308 308 307 306 304 303 302 301 300 299 297 296 295 294 293
29 25 11 8 4 360 355 350 348 348 350 349 347 345 342 343 342 334 331 333 336 338 341 341 336 317 312 329 332 334 337 339 335 336 341 339 336 331 321 304 276 259 257 266 290 308 313 314 315 315 316 316 317 317 317 318 316 312 314 317 317 316 315 313 312 311 309 308 308 308 308 308 308 308 308 307 306 305 303 302 301 300 299 297 296 295
28 20 9 6 360 358 353 350 352 351 349 350 347 344 345 343 338 334 332 334 338 339 338 344 344 311 307 318 331 337 334 333 333 336 338 335 330 324 311 285 263 270 295 310 315 317 318 318 318 318 317 317 318 318 317 318 316 311 310 313 314 317 316 312 312 312 309 308 308 308 308 308 308 307 307 306 305 304 303 303 302 301 300 299 297 296
21 15 9 4 358 354 352 353 355 352 352 352 344 343 345 341 335 334 335 334 337 330 330 353 2 324 320 316 328 332 328 328 334 336 333 329 325 316 293 282 300 318 321 318 318 319 321 322 322 321 319 319 319 318 317 315 315 311 307 303 306 314 314 307 308 308 306 306 307 306 306 306 306 306 305 304 303 303 303 304 303 302 300 299 298 296
17 13 6 360 357 354 355 358 355 353 352 346 342 343 342 338 335 337 334 328 332 327 327 12 354 324 320 322 322 322 322 328 333 332 328 323 317 304 298 321 327 321 318 319 322 324 325 325 324 323 323 322 319 317 315 314 313 311 307 302 302 312 310 298 299 302 301 302 302 302 302 302 303 303 303 302 301 302 303 304 304 303 302 300 299 297
14 8 2 358 357 357 1 360 353 351 348 344 343 341 339 338 339 338 332 332 340 336 340 5 351 332 313 319 316 315 324 329 329 326 321 314 308 313 324 324 320 321 324 328 328 326 324 322 321 320 319 317 315 314 313 313 312 311 309 306 304 307 300 288 292 296 295 296 296 296 297 298 299 299 299 298 299 301 302 302 302 302 300 299 297 295
11 3 0 359 358 358 0 357 353 351 346 345 341 340 343 343 344 346 347 349 346 345 5 350 347 337 310 313 310 317 327 327 325 323 317 313 316 321 322 322 326 330 330 327 323 320 319 318 318 316 315 313 312 311 310 309 308 307 308 306 302 301 295 289 292 293 290 290 291 292 293 294 294 294 295 297 299 301 301 301 301 300 298 296 294 292
12 6 360 360 359 357 357 357 356 351 347 348 345 346 349 345 347 353 350 349 348 347 352 338 337 331 305 312 317 322 326 324 322 319 320 324 324 324 326 329 331 329 324 321 320 320 319 319 318 317 317 316 315 314 313 311 309 308 308 306 303 300 298 294 292 290 288 286 287 289 290 292 294 295 298 300 300 300 299 299 299 297 296 294 292 290
19 11 0 1 358 354 355 357 357 353 352 352 350 353 356 351 350 349 343 353 360 336 329 324 332 325 285 304 320 324 324 321 319 323 330 330 328 330 332 330 326 323 323 323 324 324 324 324 323 322 321 320 320 319 316 313 309 308 307 304 302 298 295 294 292 291 288 286 286 288 289 292 297 299 300 300 299 298 297 296 295 294 294 292 290 289
20 10 2 1 357 354 356 357 358 356 352 353 356 360 4 1 352 342 341 347 324 313 318 322 328 313 284 308 318 323 321 316 320 328 331 331 332 333 331 326 324 325 326 326 328 329 327 327 328 326 325 324 323 320 316 314 310 308 306 303 301 297 294 294 292 289 287 287 288 289 291 296 299 299 298 298 297 296 296 295 294 294 294 292 290 288
15 6 2 1 358 356 355 355 358 355 351 356 2 7 12 9 345 328 330 330 309 308 314 319 319 293 300 315 316 320 318 314 320 325 329 333 332 329 325 325 326 326 329 332 333 332 329 330 331 330 328 326 324 322 319 317 315 313 311 306 300 294 291 289 287 286 288 289 289 291 295 298 298 297 296 295 296 296 295 295 295 295 294 292 290 288
11 355 355 0 358 354 352 353 356 353 352 356 2 10 18 14 303 280 308 312 301 305 310 318 321 296 313 317 317 318 315 314 319 325 330 330 326 325 325 327 328 330 334 335 333 333 333 334 333 332 329 326 326 324 323 322 319 316 310 302 292 286 284 282 282 286 288 289 290 292 295 296 295 295 294 295 296 295 295 296 296 295 293 291 289 288
6 353 353 359 356 352 350 350 351 356 358 351 357 6 5 346 286 272 283 279 280 290 301 318 313 307 316 316 316 318 315 318 324 328 328 325 325 328 329 330 332 335 335 335 336 337 337 336 335 332 330 329 328 326 324 320 313 309 304 296 288 284 283 283 283 285 287 288 290 292 293 294 293 294 294 295 294 294 295 296 296 294 292 290 289 288
360 355 359 358 354 352 350 348 349 356 356 349 355 2 355 342 320 310 300 293 292 286 297 313 305 315 322 316 316 322 320 323 328 326 324 325 328 331 332 331 334 336 337 339 337 335 337 337 335 333 332 331 329 327 326 318 308 304 301 295 290 285 285 284 286 287 288 290 291 291 293 292 292 292 293 294 294 294 296 295 295 293 291 290 289 287
355 353 2 359 353 351 351 347 345 347 347 349 356 356 353 347 337 339 323 314 323 310 302 308 307 318 325 318 319 323 320 322 325 325 326 327 329 333 335 335 336 338 341 341 334 332 336 337 335 334 333 332 327 326 328 322 313 308 301 295 291 288 287 287 288 290 290 292 291 292 292 290 291 291 292 293 294 295 296 295 295 293 292 291 289 287
357 352 357 358 353 349 352 349 342 340 341 345 349 354 2 5 316 334 329 307 325 322 309 314 316 317 318 315 319 319 319 323 325 327 328 329 331 336 338 338 340 341 343 342 339 337 337 336 334 334 334 334 331 330 331 328 324 320 312 304 296 290 288 287 288 289 289 290 290 290 290 290 291 292 292 294 295 296 296 295 295 293 292 291 289 287
359 348 340 353 353 348 349 349 339 334 333 338 345 353 2 3 325 327 325 278 310 319 311 314 317 315 316 319 317 315 321 324 326 328 329 330 334 338 337 337 341 344 344 342 340 340 338 336 336 336 337 338 336 334 333 332 332 330 327 322 313 305 299 293 291 289 289 290 290 290 290 291 292 293 295 296 296 297 296 295 295 294 294 292 290 288
359 347 330 347 355 355 347 346 339 332 328 333 344 352 355 355 347 329 306 284 294 300 312 319 309 302 314 321 320 319 322 324 326 328 330 333 338 340 338 337 339 342 344 342 340 340 339 338 339 340 342 342 339 336 334 333 333 332 331 329 324 317 312 308 305 301 299 298 297 296 295 296 297 298 299 299 298 298 297 296 296 295 294 293 291 290
358 348 334 344 354 355 340 340 337 333 329 332 341 348 347 349 351 338 304 302 298 283 295 296 282 297 313 326 329 326 323 322 327 330 333 337 340 340 340 338 338 341 342 342 341 341 340 341 343 343 342 343 342 339 335 334 334 334 332 330 326 323 319 317 316 313 311 309 306 305 303 302 303 303 303 302 301 300 299 298 297 296 295 294 293 292
356 349 340 344 351 348 333 338 337 330 331 334 338 341 340 341 343 338 305 306 306 299 297 284 273 299 316 327 331 327 321 324 331 334 336 339 340 340 341 340 340 341 343 343 341 341 341 343 346 344 341 340 342 341 339 337 336 335 334 331 329 328 325 322 322 319 317 315 313 311 309 309 309 307 308 306 304 303 301 300 299 298 298 296 294 293
356 350 343 345 351 350 337 342 341 334 333 333 333 336 335 332 332 327 312 305 297 295 306 302 276 294 314 327 330 326 322 328 334 336 336 338 339 340 341 341 341 342 344 343 342 342 343 344 346 345 342 340 342 343 341 340 339 337 336 334 332 332 330 328 326 324 322 320 318 317 315 315 315 313 313 310 308 307 304 302 303 302 300 298 297 295
356 349 346 348 352 350 345 347 342 333 328 325 326 330 327 325 327 323 318 309 288 295 313 306 279 298 320 331 330 326 327 332 336 336 336 339 339 340 341 341 342 343 343 343 343 344 345 346 345 344 341 340 340 342 342 341 340 339 338 337 335 333 332 331 330 329 328 326 325 324 322 320 320 318 316 313 311 310 308 307 307 306 305 305 303 298
351 348 351 354 352 340 323 319 321 318 314 316 322 325 321 323 323 319 316 300 287 303 304 296 298 310 328 337 332 329 333 334 337 338 338 339 339 340 341 342 343 344 344 343 344 345 346 345 344 343 340 337 338 340 341 341 340 339 337 337 335 334 333 332 332 332 331 331 330 329 327 326 324 321 318 316 316 316 317 316 317 318 317 317 314 306
350 348 348 344 337 330 318 314 316 312 308 313 321 321 320 324 320 318 312 287 296 303 293 301 306 307 325 337 333 331 335 335 338 339 339 339 339 339 341 343 345 345 344 344 345 345 345 344 343 342 339 336 337 337 338 338 338 338 336 336 335 334 334 333 334 335 334 334 333 332 331 328 325 324 323 324 326 328 332 333 335 337 333 330 328 320
349 346 344 340 339 338 329 326 327 319 314 317 319 319 323 325 319 316 308 299 309 301 293 314 317 305 322 335 331 331 336 337 339 340 339 338 338 338 341 344 345 345 345 345 345 345 344 343 343 343 340 337 336 336 337 337 336 335 334 334 335 335 335 334 335 337 337 336 335 334 332 329 328 329 332 337 340 342 345 348 349 351 349 351 360 11
348 345 342 340 344 346 336 333 335 329 323 321 317 319 325 324 319 317 313 314 314 300 304 322 323 315 327 333 329 333 338 338 338 339 338 338 338 339 342 344 345 346 346 346 346 345 344 343 342 343 341 338 338 337 337 337 336 335 333 334 335 335 336 337 338 339 337 336 336 335 333 333 334 340 346 349 350 352 358 5 6 15 27 35 47 49
347 344 342 340 345 351 342 339 341 334 326 321 316 320 325 325 324 321 322 325 321 314 319 326 323 324 331 332 332 338 340 338 338 338 337 338 338 339 342 344 345 347 347 346 345 345 345 343 343 343 340 339 340 339 339 339 339 338 337 337 338 337 338 339 339 339 338 337 337 337 338 341 345 351 354 355 0 8 20 34 42 55 61 58 54 47
346 343 344 340 341 350 349 343 342 333 323 315 316 326 329 328 328 325 326 329 326 324 328 327 324 330 335 335 337 340 339 338 339 338 338 338 338 340 343 344 345 347 347 346 345 345 345 344 343 343 341 341 342 341 341 341 341 340 339 338 338 338 339 340 340 340 339 338 339 341 347 351 352 357 1 6 19 34 51 62 67 69 66 60 57 52
346 343 344 340 338 344 347 344 340 332 318 309 324 333 334 330 329 328 330 334 333 329 329 328 327 333 338 339 338 339 339 338 339 339 338 338 339 341 343 344 345 347 347 346 346 345 345 344 343 342 342 342 342 342 343 343 343 342 341 338 337 338 340 341 341 341 339 340 343 349 355 357 359 5 15 30 48 62 68 70 70 69 66 64 62 57
347 344 344 342 335 337 345 345 340 329 308 317 333 337 336 332 332 332 334 338 337 329 326 329 331 335 339 338 337 337 338 338 339 339 338 338 340 342 344 345 346 346 347 347 346 345 344 344 343 342 341 341 342 343 343 344 344 343 341 338 336 337 339 341 342 341 339 342 348 358 2 6 12 25 44 58 66 69 67 68 70 70 70 67 63 60
346 344 344 342 333 333 342 345 341 323 297 329 334 336 335 334 334 333 334 338 338 332 333 335 336 338 338 337 336 336 337 338 338 339 338 340 342 343 344 346 346 346 347 347 347 346 344 343 343 342 341 342 343 343 342 344 344 342 340 338 335 334 336 340 341 340 341 346 357 7 12 23 35 49 62 64 66 66 66 71 73 71 71 69 65 61
344 344 344 341 334 332 340 347 352 328 322 328 332 336 337 337 337 334 336 343 344 340 340 340 340 341 339 338 337 336 336 338 338 339 341 344 344 343 345 346 346 346 347 347 348 346 344 343 343 342 342 342 342 341 341 343 342 341 339 337 335 333 333 337 339 339 344 353 8 17 28 44 52 58 62 60 64 69 71 76 77 75 76 73 67 58
343 344 344 341 337 333 338 343 341 321 325 327 332 338 338 338 339 335 337 345 348 341 341 343 343 342 341 339 339 337 336 338 340 342 344 346 345 344 345 346 345 345 346 348 348 347 344 343 343 342 343 342 341 341 341 342 342 341 338 336 334 333 332 335 338 340 346 360 16 28 47 58 58 59 59 60 67 72 76 81 80 78 74 66 58 49
343 344 343 340 337 335 331 326 319 322 329 334 339 340 338 338 339 335 334 341 346 342 342 344 343 343 342 340 340 339 337 339 343 345 345 345 344 343 344 345 345 345 346 348 349 347 345 344 343 343 343 343 342 341 341 342 341 340 337 335 334 334 334 334 337 342 349 3 25 44 62 62 58 59 60 63 68 74 84 86 80 73 64 54 47 39
341 341 341 337 332 332 330 325 323 324 327 335 338 338 337 338 339 335 331 337 345 343 342 344 344 344 343 341 341 341 339 341 346 347 344 344 345 343 344 345 345 345 347 349 349 349 346 344 344 344 343 343 343 341 342 342 342 340 338 335 334 336 337 334 338 346 352 7 39 59 73 63 57 60 62 68 76 85 93 90 79 69 57 46 39 32
338 337 338 334 330 330 327 319 306 287 308 329 334 336 337 338 337 335 330 335 342 342 341 343 344 343 342 341 342 343 341 342 346 347 344 344 345 344 343 344 345 347 349 350 350 350 348 346 345 344 344 344 343 342 344 344 343 342 340 337 337 339 339 337 342 349 353 21 62 80 89 60 53 62 65 72 86 96 100 93 79 66 54 43 36 30
337 334 333 331 328 327 320 307 301 302 315 328 333 334 336 336 336 336 329 331 337 339 339 342 342 342 342 342 342 343 342 340 342 344 344 343 344 344 343 343 346 348 350 351 351 352 350 348 345 345 345 345 344 345 346 346 345 344 342 340 339 341 342 342 346 352 1 80 103 111 102 53 54 68 67 74 94 105 106 96 80 67 57 48 41 34
335 332 329 329 327 325 315 302 306 314 324 331 333 334 334 334 334 331 323 328 334 337 339 341 341 341 343 344 343 343 342 340 340 342 343 343 344 344 343 344 346 348 350 351 353 353 352 350 347 346 346 346 346 347 348 348 347 346 344 343 343 345 348 349 351 1 44 130 129 132 112 61 68 78 73 84 108 116 110 94 79 68 60 52 43 34
331 329 327 327 326 323 314 305 307 319 331 334 333 333 332 331 328 326 327 332 335 336 338 341 342 342 344 345 344 343 341 341 341 342 343 345 345 345 344 345 348 350 351 353 354 355 354 351 349 347 347 347 348 350 351 351 349 348 347 347 349 352 356 356 3 46 125 143 136 134 121 93 95 92 82 94 120 126 112 89 72 61 55 49 42 33
327 324 324 325 325 322 316 312 314 323 330 331 330 330 330 329 327 329 332 336 337 336 338 341 343 343 345 345 345 344 342 342 342 343 345 346 346 345 346 347 349 351 353 354 355 356 355 353 351 349 348 349 350 352 353 353 352 350 349 351 355 358 2 11 49 110 135 145 140 132 130 122 115 107 88 95 121 130 116 87 62 50 46 43 39 32
325 322 319 321 323 318 312 315 321 323 325 328 328 327 328 329 330 332 334 335 337 337 338 340 343 344 345 345 345 345 343 343 343 344 346 347 346 346 347 349 350 352 353 354 356 357 356 355 353 351 350 350 351 353 354 355 355 354 353 356 1 1 6 27 100 132 139 147 145 138 142 137 126 125 108 103 122 133 119 85 59 45 41 39 34 29
322 321 317 315 317 315 315 322 326 324 326 329 328 327 329 330 331 332 333 335 336 336 337 340 342 344 344 345 346 346 344 343 344 345 346 347 347 347 349 351 352 353 354 355 356 358 358 356 355 353 351 351 352 354 356 357 358 358 358 2 5 5 8 31 115 141 146 150 147 144 151 155 150 155 143 131 145 151 134 97 62 41 34 33 29 25
318 318 316 317 318 318 325 332 330 327 330 330 327 328 330 330 330 331 332 334 335 335 337 339 340 342 344 345 347 347 345 344 345 345 345 347 348 349 350 351 353 354 355 355 357 358 358 357 356 355 353 352 353 356 358 359 0 1 2 5 9 10 12 38 119 142 149 152 149 151 159 163 160 162 161 171 182 180 170 129 61 31 19 25 29 25
318 315 316 320 318 317 326 335 331 327 331 332 328 329 331 330 330 331 332 333 334 335 336 338 339 341 343 345 347 347 346 345 345 345 345 347 349 351 351 352 354 355 355 356 356 358 359 358 357 356 354 353 354 357 360 1 2 3 5 7 10 13 19 60 123 142 150 152 153 158 160 156 156 165 182 195 200 195 188 164 61 15 3 18 28 26
316 315 318 320 317 318 327 334 330 328 333 334 330 330 331 330 330 331 332 333 333 334 335 337 338 339 342 345 347 348 347 346 345 345 345 347 350 352 352 352 354 355 356 356 356 358 359 359 358 357 355 354 355 358 1 3 3 4 6 8 11 15 28 84 130 144 151 154 156 159 157 150 149 162 180 186 191 186 180 172 61 353 359 19 27 25
311 315 319 317 317 322 330 332 329 329 334 335 331 330 331 331 330 332 332 333 332 333 334 336 337 338 340 343 346 347 348 347 345 345 346 347 349 351 352 353 354 355 356 357 356 357 359 359 359 357 356 355 356 359 2 4 4 5 7 9 12 16 38 101 136 148 154 159 162 163 160 155 154 171 181 181 183 179 177 188 223 329 9 25 31 29
310 318 320 316 317 324 331 331 328 329 332 334 332 331 332 331 331 332 333 333 332 333 333 334 335 336 338 342 345 347 348 347 345 344 346 347 349 351 352 353 354 355 356 357 357 357 358 359 359 358 357 356 356 359 2 4 5 6 8 10 12 16 45 114 144 154 161 168 173 175 177 176 178 189 198 204 213 207 200 206 208 186 357 301 279 356
315 321 320 318 318 323 329 330 327 327 331 332 332 332 332 331 331 332 333 333 332 332 332 333 334 335 336 340 343 346 348 347 345 344 345 347 349 351 351 353 354 354 356 357 358 358 358 359 359 359 357 357 357 358 1 4 5 6 8 9 9 13 38 129 157 166 173 181 188 191 195 196 198 206 212 220 227 224 216 211 212 239 273 270 268 281